FW3572 Weather Reports


time (UTC)temp
F
wind
direction
speed
knots
gust
knots
rain 1hr
in
rain 24hr
in
rain mn
in
humidity
%
barometer
mb
20260505165548 80 165 3.5 9.6 0.00 0.00 0.00 100 1018.1
20260505165047 80 121 4.3 12.2 0.00 0.00 0.00 100 1018.1
20260505164549 81 95 3.5 12.2 0.00 0.00 0.00 100 1018.1
20260505164046 81 102 3.5 10.4 0.00 0.00 0.00 100 1018.3
20260505163546 80 135 3.5 10.4 0.00 0.00 0.00 100 1018.2
20260505163046 80 136 5.2 9.6 0.00 0.00 0.00 100 1018.3
20260505162546 80 54 3.5 9.6 0.00 0.00 0.00 100 1018.2
20260505162047 80 135 4.3 9.6 0.00 0.00 0.00 100 1018.2
20260505161551 81 122 2.6 7.8 0.00 0.00 0.00 100 1018.2
20260505161044 80 96 2.6 7.8 0.00 0.00 0.00 100 1018.2
20260505160544 80 169 2.6 11.3 0.00 0.00 0.00 100 1018.3
20260505153041 80 126 2.6 10.4 0.00 0.00 0.00 100 1018.2
20260505152540 80 36 3.5 10.4 0.00 0.00 0.00 100 1018.2
20260505152045 80 57 3.5 8.7 0.00 0.00 0.00 100 1018.2
20260505151539 79 15 2.6 9.6 0.00 0.00 0.00 100 1018.1
20260505151043 79 109 3.5 9.6 0.00 0.00 0.00 100 1018.1
20260505150538 78 119 5.2 9.6 0.00 0.00 0.00 100 1018.1
20260505140532 78 80 1.7 8.7 0.00 0.00 0.00 100 1017.8
20260505125025 75 53 2.6 9.6 0.00 0.00 0.00 100 1017.5
20260505124523 75 119 2.6 7.8 0.00 0.00 0.00 100 1017.5
20260505124022 75 50 1.7 7.0 0.00 0.00 0.00 100 1017.8
20260505123521 75 127 2.6 7.8 0.00 0.00 0.00 100 1017.8
20260505123029 75 118 2.6 7.8 0.00 0.00 0.00 100 1017.9
20260505122521 75 107 1.7 7.0 0.00 0.00 0.00 100 1017.9
20260505122020 75 355 2.6 11.3 0.00 0.00 0.00 100 1017.8
20260505121519 75 24 0.9 11.3 0.00 0.00 0.00 100 1017.8
20260505121019 75 116 3.5 9.6 0.00 0.00 0.00 100 1017.5
20260505120518 75 94 2.6 8.7 0.00 0.00 0.00 100 1017.5
20260505120023 75 80 1.7 7.8 0.00 0.00 0.00 100 1017.4
20260505115515 75 91 1.7 9.6 0.00 0.00 0.00 100 1017.2
20260505115014 74 111 2.6 9.6 0.00 0.00 0.00 100 1017.2
20260505114513 74 110 1.7 7.8 0.00 0.00 0.00 100 1017.2
20260505114018 74 107 2.6 7.8 0.00 0.00 0.00 100 1017.2
20260505113512 74 115 0.9 7.8 0.00 0.00 0.00 100 1017.1
20260505113009 74 58 1.7 7.8 0.00 0.00 0.00 100 1017.1
20260505112509 74 115 1.7 7.8 0.00 0.00 0.00 100 1016.9
20260505112006 74 122 1.7 7.0 0.00 0.00 0.00 100 1016.9
20260505111513 74 98 2.6 9.6 0.00 0.00 0.00 100 1016.8
20260505111004 74 127 1.7 6.1 0.00 0.00 0.00 100 1016.8
20260505110504 74 51 1.7 7.8 0.00 0.00 0.00 100 1016.9
20260505102048 73 143 0.9 7.0 0.00 0.00 0.00 100 1016.4
20260505101602 73 161 2.6 7.0 0.00 0.00 0.00 100 1016.4
20260505101046 73 94 1.7 7.0 0.00 0.00 0.00 100 1016.3
20260505100544 73 75 1.7 5.2 0.00 0.00 0.00 100 1016.3
20260505100059 73 82 1.7 6.1 0.00 0.00 0.00 100 1016.0
20260505095541 73 126 0.9 6.1 0.00 0.00 0.00 100 1016.2
20260505095039 73 113 0.9 4.3 0.00 0.00 0.00 100 1016.1
20260505094539 73 114 0.9 6.1 0.00 0.01 0.00 100 1016.1
20260505094037 73 130 0.9 6.1 0.00 0.01 0.00 100 1016.1
20260505093535 73 114 1.7 6.1 0.00 0.01 0.00 100 1015.9
20260505093034 73 115 2.6 6.1 0.00 0.01 0.00 100 1015.8
20260505092532 73 105 1.7 6.1 0.00 0.01 0.00 100 1016.0
20260505092031 73 108 1.7 7.8 0.00 0.01 0.00 100 1016.0
20260505091530 73 109 2.6 7.8 0.00 0.01 0.00 100 1015.8
20260505091027 73 129 0.9 3.5 0.00 0.01 0.00 100 1015.9
20260505090526 73 125 0.9 6.1 0.00 0.01 0.00 100 1016.0
20260505090025 73 65 1.7 5.2 0.00 0.01 0.00 100 1015.9
20260505085523 73 90 0.9 7.8 0.00 0.01 0.00 100 1015.7
20260505085022 73 105 0.9 7.8 0.00 0.01 0.00 100 1015.8
20260505084521 73 149 0.9 4.3 0.00 0.01 0.00 100 1015.8
20260505084019 73 103 0.9 5.2 0.00 0.01 0.00 100 1015.8
20260505083516 73 119 0.9 8.7 0.00 0.01 0.00 100 1015.5
20260505083015 73 123 1.7 8.7 0.00 0.01 0.00 100 1015.4
20260505082514 73 107 1.7 6.1 0.00 0.01 0.00 100 1015.6
20260505082012 73 126 1.7 6.1 0.00 0.01 0.00 100 1015.7
20260505081512 73 75 0.9 6.1 0.00 0.01 0.00 100 1015.6
20260505081012 73 106 1.7 6.1 0.00 0.01 0.00 100 1015.7
20260505080509 73 139 1.7 6.1 0.00 0.01 0.00 100 1015.5
20260505080006 73 103 1.7 7.0 0.00 0.01 0.00 100 1015.5
20260505075507 73 95 0.9 7.0 0.00 0.01 0.00 100 1015.5
20260505075008 73 121 2.6 7.0 0.00 0.01 0.00 100 1015.6
20260505074503 73 130 2.6 7.8 0.00 0.01 0.00 100 1015.7
20260505074001 73 119 1.7 7.8 0.00 0.01 0.00 100 1015.9
20260505073600 73 119 1.7 7.8 0.00 0.01 0.00 100 1016.0
20260505073104 73 101 1.7 7.8 0.00 0.01 0.00 100 1016.0
20260505072557 73 101 1.7 7.0 0.00 0.01 0.00 100 1016.0
20260505072054 73 86 0.9 8.7 0.00 0.01 0.00 100 1016.1
20260505071556 73 103 2.6 9.6 0.00 0.01 0.00 100 1016.0
20260505071052 73 98 2.6 7.0 0.00 0.01 0.00 100 1016.1
20260505070551 73 111 3.5 7.8 0.00 0.01 0.00 100 1016.1
20260505070053 73 128 2.6 7.8 0.00 0.01 0.00 100 1016.2
20260505065548 73 118 1.7 11.3 0.00 0.01 0.00 100 1016.1
20260505065045 73 133 2.6 11.3 0.00 0.01 0.00 100 1016.0
20260505064545 74 93 2.6 8.7 0.00 0.01 0.00 100 1016.3
20260505064043 73 118 2.6 7.8 0.00 0.01 0.00 100 1016.3
20260505063544 74 106 2.6 8.7 0.00 0.01 0.00 100 1016.3
20260505063047 74 133 3.5 8.7 0.00 0.01 0.00 100 1016.4
20260505062537 73 119 3.5 8.7 0.00 0.01 0.00 100 1016.5
20260505062036 74 90 1.7 7.8 0.00 0.01 0.00 100 1016.6
20260505061539 74 98 3.5 7.8 0.00 0.01 0.00 100 1016.5
20260505061033 74 122 2.6 7.0 0.00 0.01 0.00 100 1016.5
20260505060533 73 98 2.6 5.2 0.00 0.01 0.00 100 1016.6
20260505060032 73 101 1.7 6.1 0.00 0.01 0.00 100 1017.0
20260505055530 74 104 2.6 6.1 0.00 0.01 0.00 100 1017.0
20260505055028 74 71 2.6 6.1 0.00 0.01 0.00 100 1017.2
20260505054526 74 110 0.9 7.8 0.00 0.01 0.00 100 1017.2
20260505054026 74 141 2.6 7.8 0.00 0.01 0.00 100 1017.2
20260505053522 74 145 1.7 6.1 0.00 0.01 0.00 100 1017.0
20260505053033 74 144 1.7 8.7 0.00 0.01 0.00 100 1017.0
20260505052519 74 84 2.6 8.7 0.00 0.01 0.00 100 1017.0
20260505052019 74 96 2.6 8.7 0.00 0.01 0.00 100 1017.0
20260505051534 74 121 4.3 8.7 0.00 0.01 0.00 100 1017.1
20260505051014 74 111 3.5 7.8 0.00 0.01 0.00 100 1017.2
20260505050513 74 103 1.7 7.0 0.00 0.01 0.00 100 1017.1
20260505041559 74 111 2.6 9.6 0.00 0.01 0.00 100 1017.3
20260505041058 74 85 1.7 8.7 0.00 0.01 0.00 100 1017.3
20260505040556 74 125 3.5 8.7 0.00 0.01 0.00 100 1017.4
20260505040055 74 119 1.7 8.7 0.00 0.01 0.00 100 1017.4
20260505035555 74 114 2.6 8.7 0.00 0.01 0.00 100 1017.5
20260505035051 74 117 2.6 7.8 0.00 0.01 0.00 100 1017.4
20260505034552 74 111 2.6 10.4 0.00 0.01 0.01 100 1017.4
20260505034051 74 128 4.3 11.3 0.00 0.01 0.01 100 1017.4
20260505033551 74 152 2.6 11.3 0.00 0.01 0.01 100 1017.4
20260505033054 74 153 1.7 7.8 0.00 0.01 0.01 100 1017.4
20260505032551 74 115 4.3 8.7 0.00 0.01 0.01 100 1017.5
20260505032050 74 119 3.5 8.7 0.00 0.01 0.01 100 1017.7
20260505031553 74 119 1.7 11.3 0.00 0.01 0.01 100 1017.7
20260505031049 74 130 4.3 11.3 0.00 0.01 0.01 100 1017.7
20260505030554 74 123 2.6 9.6 0.00 0.01 0.01 100 1017.7
20260505030050 74 138 3.5 9.6 0.00 0.01 0.01 100 1017.6
20260505025549 74 142 0.9 7.8 0.00 0.01 0.01 100 1017.5
20260505025052 74 119 2.6 10.4 0.00 0.01 0.01 100 1017.5
20260505024553 74 140 3.5 10.4 0.00 0.01 0.01 100 1017.7
20260505024048 74 123 2.6 11.3 0.00 0.01 0.01 100 1017.6
20260505023550 74 113 3.5 9.6 0.00 0.01 0.01 100 1017.7
20260505023052 74 130 3.5 8.7 0.00 0.01 0.01 100 1017.8
20260505022548 74 117 2.6 9.6 0.00 0.01 0.01 100 1017.8
20260505022051 74 99 3.5 13.0 0.00 0.01 0.01 100 1017.7
20260505021547 74 111 2.6 13.0 0.00 0.01 0.01 100 1017.6
20260505021047 74 123 5.2 12.2 0.00 0.01 0.01 100 1017.6
20260505020547 74 132 5.2 10.4 0.00 0.01 0.01 100 1017.5
20260505020050 74 101 3.5 8.7 0.00 0.01 0.01 100 1017.5
20260505015547 74 109 4.3 7.8 0.00 0.01 0.01 100 1017.5
20260505015046 74 157 4.3 7.8 0.00 0.01 0.01 100 1017.5
20260505014553 74 123 2.6 7.8 0.00 0.01 0.01 100 1017.5
20260505014045 74 132 2.6 7.8 0.00 0.01 0.01 100 1017.6
20260505013545 74 126 2.6 7.8 0.00 0.01 0.01 100 1017.6
20260505013045 74 128 2.6 10.4 0.00 0.01 0.01 100 1017.7
20260505012545 74 134 2.6 10.4 0.00 0.01 0.01 100 1017.6
20260505012045 74 121 2.6 10.4 0.00 0.01 0.01 100 1017.5
20260505011547 74 107 2.6 10.4 0.00 0.01 0.01 100 1017.5
20260505011044 74 107 2.6 9.6 0.00 0.01 0.01 100 1017.5
20260505010544 74 109 2.6 9.6 0.00 0.01 0.01 100 1017.3
20260505010104 74 128 2.6 9.6 0.00 0.01 0.01 100 1017.1
20260505005547 74 130 3.5 9.6 0.00 0.01 0.01 100 1017.1
20260505005045 74 119 3.5 9.6 0.00 0.01 0.01 100 1017.1
20260505004544 74 113 1.7 7.0 0.00 0.01 0.01 100 1017.1
20260505004043 74 117 3.5 7.8 0.00 0.01 0.01 100 1017.0
20260505003543 74 107 2.6 8.7 0.00 0.01 0.01 100 1017.1
20260505003046 74 132 3.5 9.6 0.00 0.01 0.01 100 1017.0
20260505002545 74 106 2.6 9.6 0.00 0.01 0.01 100 1017.1
20260505002042 74 120 1.7 7.8 0.00 0.01 0.01 100 1017.0
20260505001542 74 144 2.6 7.8 0.00 0.01 0.01 100 1016.9
20260505001111 74 96 1.7 10.4 0.00 0.01 0.01 100 1016.8
20260505000541 74 82 3.5 7.8 0.00 0.01 0.01 100 1016.7
20260505000046 74 146 2.6 7.8 0.00 0.01 0.01 100 1016.6
20260504235541 74 92 3.5 7.8 0.00 0.01 0.01 100 1016.5
20260504235043 74 128 2.6 9.6 0.00 0.01 0.01 100 1016.4
20260504234542 74 126 2.6 9.6 0.00 0.01 0.01 100 1016.4
20260504234041 74 134 2.6 8.7 0.00 0.01 0.01 100 1016.3
20260504233541 74 137 2.6 8.7 0.00 0.01 0.01 100 1016.3
20260504233040 74 148 2.6 9.6 0.00 0.01 0.01 100 1016.3
20260504232540 74 168 4.3 9.6 0.00 0.01 0.01 100 1016.3
20260504232039 74 30 2.6 7.0 0.00 0.01 0.01 100 1016.3
20260504231545 74 144 2.6 10.4 0.00 0.01 0.01 100 1016.4
20260504231039 74 109 2.6 10.4 0.00 0.01 0.01 100 1016.4
20260504230542 74 145 3.5 11.3 0.00 0.01 0.01 100 1016.5
20260504230044 74 85 5.2 11.3 0.00 0.01 0.01 100 1016.6
20260504225539 74 143 3.5 10.4 0.00 0.01 0.01 100 1016.4
20260504225038 74 116 3.5 8.7 0.00 0.01 0.01 100 1016.4
20260504224538 75 126 3.5 7.8 0.00 0.01 0.01 100 1016.3
20260504224038 75 136 2.6 8.7 0.00 0.01 0.01 100 1016.4
20260504223544 75 119 2.6 11.3 0.00 0.01 0.01 100 1016.5
20260504223040 75 116 2.6 12.2 0.00 0.01 0.01 100 1016.5
20260504222538 75 103 6.1 12.2 0.00 0.01 0.01 100 1016.4
20260504222037 75 99 2.6 9.6 0.00 0.01 0.01 100 1016.4
20260504221553 75 139 2.6 12.2 0.00 0.01 0.01 100 1016.5
20260504221037 75 108 2.6 9.6 0.00 0.01 0.01 100 1016.4
20260504220537 75 121 2.6 12.2 0.00 0.01 0.01 100 1016.5
20260504220037 75 111 4.3 12.2 0.00 0.01 0.01 100 1016.5
20260504215537 75 120 2.6 8.7 0.00 0.01 0.01 100 1016.5
20260504215036 75 110 2.6 9.6 0.00 0.01 0.01 100 1016.6
20260504214536 76 98 2.6 9.6 0.00 0.01 0.01 100 1016.5
20260504214036 76 115 3.5 10.4 0.00 0.01 0.01 100 1016.5
20260504213536 76 91 3.5 10.4 0.00 0.01 0.01 100 1016.5
20260504213047 76 84 1.7 10.4 0.00 0.01 0.01 100 1016.6
20260504212535 76 103 2.6 12.2 0.00 0.01 0.01 100 1016.6
20260504212038 76 109 3.5 12.2 0.00 0.01 0.01 100 1016.6
20260504211539 76 123 3.5 13.0 0.00 0.01 0.01 100 1016.6
20260504211035 77 128 2.6 8.7 0.00 0.01 0.01 100 1016.7
20260504210537 77 28 4.3 11.3 0.00 0.01 0.01 100 1016.5
20260504210034 76 146 5.2 11.3 0.00 0.01 0.01 100 1016.8
20260504205534 77 106 2.6 13.0 0.00 0.01 0.01 100 1016.6
20260504205035 77 134 4.3 13.0 0.00 0.01 0.01 100 1016.7
20260504204535 76 126 3.5 12.2 0.00 0.01 0.01 100 1016.6
20260504204033 76 28 4.3 15.6 0.00 0.01 0.01 100 1016.8
20260504203533 76 132 4.3 15.6 0.00 0.01 0.01 100 1016.7
20260504203045 77 165 4.3 11.3 0.00 0.01 0.01 100 1016.8
20260504202533 76 101 4.3 13.0 0.00 0.01 0.01 100 1016.7
20260504202033 76 137 6.1 13.0 0.00 0.01 0.01 100 1017.0
20260504201532 77 111 3.5 10.4 0.00 0.01 0.01 100 1016.9
20260504201032 76 121 3.5 10.4 0.00 0.01 0.01 100 1016.9
20260504200532 76 5 3.5 9.6 0.00 0.01 0.01 100 1017.1
20260504200032 76 121 4.3 13.0 0.00 0.01 0.01 100 1017.2
20260504195531 76 72 3.5 13.0 0.00 0.01 0.01 100 1017.3
20260504195031 76 119 4.3 13.0 0.00 0.01 0.01 100 1017.3
20260504194539 77 104 4.3 13.0 0.00 0.01 0.01 100 1017.3
20260504194031 77 142 2.6 10.4 0.00 0.01 0.01 100 1017.4
20260504193533 77 110 2.6 9.6 0.00 0.01 0.01 100 1017.3
20260504193030 77 151 3.5 9.6 0.00 0.01 0.01 100 1017.4
20260504192530 77 87 4.3 13.9 0.00 0.01 0.01 100 1017.4
20260504192032 77 153 5.2 13.9 0.00 0.01 0.01 100 1017.4
20260504191537 77 143 5.2 13.9 0.00 0.01 0.01 100 1017.4
20260504191029 76 128 4.3 10.4 0.00 0.01 0.01 100 1017.3
20260504190532 76 128 3.5 11.3 0.00 0.01 0.01 100 1017.5
20260504190030 77 105 4.3 11.3 0.00 0.01 0.01 100 1017.6
20260504185530 78 72 3.5 11.3 0.00 0.01 0.01 100 1017.6
20260504185032 77 117 3.5 11.3 0.00 0.01 0.01 100 1017.7
20260504184530 78 99 4.3 12.2 0.00 0.01 0.01 100 1017.7
20260504184033 78 98 5.2 12.2 0.00 0.01 0.01 100 1017.6
20260504183530 77 126 5.2 12.2 0.00 0.01 0.01 100 1017.9
20260504183028 77 142 5.2 10.4 0.00 0.01 0.01 100 1018.0
20260504182527 77 121 5.2 9.6 0.00 0.01 0.01 100 1018.1
20260504182027 77 113 2.6 10.4 0.00 0.01 0.01 100 1018.1
20260504181527 77 126 2.6 10.4 0.00 0.01 0.01 100 1018.1
20260504181029 76 121 5.2 11.3 0.00 0.01 0.01 100 1018.2
20260504180527 76 142 5.2 11.3 0.00 0.01 0.01 100 1018.2
20260504180027 77 148 3.5 10.4 0.00 0.01 0.01 100 1018.1
20260504175530 77 139 5.2 9.6 0.00 0.01 0.01 100 1018.1
20260504175026 77 94 3.5 9.6 0.00 0.01 0.01 100 1018.1
20260504174526 77 5 3.5 12.2 0.00 0.01 0.01 100 1018.2
20260504174027 77 135 4.3 12.2 0.00 0.01 0.01 100 1018.3
20260504173526 77 120 2.6 11.3 0.00 0.01 0.01 100 1018.3
20260504173027 77 125 4.3 12.2 0.00 0.01 0.01 100 1018.3
20260504172526 77 41 5.2 11.3 0.00 0.01 0.01 100 1018.3
20260504172025 77 126 3.5 12.2 0.00 0.01 0.01 100 1018.2
20260504171531 77 111 4.3 12.2 0.00 0.01 0.01 100 1018.3
20260504171027 76 119 4.3 9.6 0.00 0.01 0.01 100 1018.2
20260504170524 77 94 2.6 10.4 0.00 0.01 0.01 100 1018.3